This demonstration page uses our WeatherBlox Daily Observations layout. Learn more.

Left ArrowRight Arrow

38.80484, -77.04692

Hourly Observations for September 26, 2020

Temp ( °F °C ) Dew Point ( °F °C ) Humidity (%) Winds ( mph kmh ) Pressure ( in mb ) Visibility ( mi km ) Precip ( " mm )
12:17 am 00:17 Cloudy with Rain 63 17.2 61 16.1 93 93 SSE 5 7 30.09 1019 4 6 0.09 2.29
12:22 am 00:22 Cloudy with Rain 63 17.2 61 16.1 93 93 S 3 6 30.09 1019 4 6 0.10 2.54
12:43 am 00:43 Cloudy with Rain 63 17.2 61 16.1 93 93 SSE 5 7 30.09 1019 3 4 0.14 3.56
12:52 am 00:52 Cloudy with Light Rain 63 17.2 61 16.1 93 93 SSE 6 9 30.08 1019 3 5 0.16 4.06
1:06 am 01:06 Cloudy with Light Rain 63 17.2 61 16.1 93 93 SSE 5 7 30.09 1019 3 4 0.02 0.51
1:16 am 01:16 Cloudy with Light Rain 63 17.2 61 16.1 93 93 N N/A 30.08 1019 3 5 0.03 0.76
1:24 am 01:24 Cloudy with Light Rain 63 17.2 61 16.1 93 93 ESE 3 6 30.08 1019 3 4 0.04 1.02
1:52 am 01:52 Cloudy with Light Rain 63 17.2 61 16.1 93 93 N N/A 30.07 1018 3 4 0.08 2.03
2:36 am 02:36 Cloudy with Light Rain 63 17.2 61 16.1 93 93 N N/A 30.07 1018 4 6 0.07 1.78
2:44 am 02:44 Cloudy with Light Rain 62 16.7 61 16.1 96 96 NNW 3 6 30.07 1018 8 13 0.07 1.78
2:52 am 02:52 Cloudy with Light Rain 63 17.2 61 16.1 93 93 N 3 6 30.06 1018 8 13 0.07 1.78
3:04 am 03:04 Cloudy with Light Rain 63 17.2 61 16.1 93 93 N 3 6 30.06 1018 4 6 0.00 0.00
3:08 am 03:08 Cloudy with Light Rain 63 17.2 61 16.1 93 93 N 3 6 30.06 1018 4 6 0.00 0.00
3:52 am 03:52 Cloudy with Light Rain 63 17.2 61 16.1 93 93 N 5 7 30.04 1017 9 14 0.04 1.02
3:59 am 03:59 Cloudy with Light Rain 63 17.2 61 16.1 93 93 N 5 7 30.04 1017 10 16 0.00 0.00
4:12 am 04:12 Cloudy 63 17.2 61 16.1 93 93 N 5 7 30.04 1017 10 16 0.00 0.00
4:20 am 04:20 Cloudy with Light Rain 63 17.2 62 16.7 97 97 NNE 5 7 30.04 1017 4 6 0.00 0.00
4:52 am 04:52 Cloudy with Mist and Fog 63 17.2 62 16.7 97 97 NNE 8 13 30.03 1017 4 6 0.02 0.51
5:02 am 05:02 Cloudy 63 17.2 62 16.7 97 97 N 5 7 30.04 1017 9 14 N/A
5:09 am 05:09 Cloudy with Light Rain 63 17.2 62 16.7 97 97 N 6 9 30.04 1017 4 6 0.00 0.00
5:45 am 05:45 Cloudy with Light Rain 63 17.2 62 16.7 97 97 NNE 7 11 30.04 1017 6 10 0.04 1.02
5:52 am 05:52 Cloudy with Light Rain 63 17.2 62 16.7 97 97 NNE 7 11 30.04 1017 5 8 0.04 1.02
6:06 am 06:06 Cloudy 63 17.2 62 16.7 97 97 NNE 7 11 30.04 1017 8 13 0.00 0.00
6:52 am 06:52 Cloudy 63 17.2 62 16.7 97 97 NNE 8 13 30.04 1017 10 16 0.00 0.00
7:52 am 07:52 Cloudy 64 17.8 62 16.7 93 93 N 8 13 30.06 1018 10 16 N/A
8:10 am 08:10 Cloudy 64 17.8 62 16.7 93 93 N 7 11 30.06 1018 10 16 N/A
8:52 am 08:52 Cloudy 65 18.3 62 16.7 90 90 NNE 8 13 30.06 1018 10 16 N/A
9:52 am 09:52 Cloudy 66 18.9 63 17.2 90 90 NE 6 9 30.07 1018 10 16 N/A
10:39 am 10:39 Cloudy 67 19.4 63 17.2 87 87 N 8 13 30.06 1018 10 16 N/A
10:52 am 10:52 Cloudy 67 19.4 63 17.2 87 87 NNE 8 13 30.06 1018 10 16 N/A
11:52 am 11:52 Cloudy 68 20 64 17.8 87 87 NNE 5 7 30.05 1018 10 16 N/A
12:32 pm 12:32 Cloudy 69 20.6 64 17.8 84 84 N 6 9 30.05 1018 10 16 N/A
12:52 pm 12:52 Cloudy 68 20 64 17.8 87 87 N 5 7 30.04 1017 10 16 N/A
1:52 pm 13:52 Cloudy 70 21.1 65 18.3 84 84 N 5 7 30.02 1017 10 16 N/A
2:52 pm 14:52 Cloudy 71 21.7 65 18.3 81 81 NNW 9 15 30.00 1016 10 16 N/A
3:03 pm 15:03 Cloudy 71 21.7 65 18.3 81 81 NW 8 13 30.00 1016 10 16 N/A
3:52 pm 15:52 Cloudy 71 21.7 65 18.3 81 81 N 8 13 29.99 1016 10 16 N/A
4:52 pm 16:52 Cloudy 72 22.2 65 18.3 79 79 NNE 3 6 29.98 1015 10 16 N/A
5:52 pm 17:52 Cloudy 71 21.7 65 18.3 81 81 N 5 7 29.99 1016 10 16 N/A
6:52 pm 18:52 Cloudy 71 21.7 66 18.9 84 84 N 5 7 29.99 1016 10 16 N/A
7:07 pm 19:07 Cloudy 70 21.1 65 18.3 84 84 NNW 5 7 30.00 1016 10 16 N/A
7:52 pm 19:52 Cloudy with Light Rain 70 21.1 66 18.9 87 87 N 7 11 30.00 1016 8 13 0.00 0.00
8:08 pm 20:08 Cloudy 70 21.1 66 18.9 87 87 NNW 6 9 30.01 1016 10 16 0.00 0.00
8:52 pm 20:52 Cloudy with Light Rain 69 20.6 66 18.9 90 90 NNW 3 6 30.01 1016 3 4 0.01 0.25
9:11 pm 21:11 Cloudy with Light Rain 69 20.6 67 19.4 93 93 NNW 6 9 30.01 1016 3 5 0.02 0.51
9:22 pm 21:22 Cloudy with Light Rain 69 20.6 67 19.4 93 93 NNW 6 9 30.02 1017 3 4 0.03 0.76
9:33 pm 21:33 Cloudy with Light Rain 69 20.6 67 19.4 93 93 NNW 6 9 30.01 1016 5 8 0.04 1.02
9:41 pm 21:41 Cloudy with Mist and Fog 69 20.6 67 19.4 93 93 NNW 5 7 30.01 1016 6 10 0.04 1.02
9:52 pm 21:52 Cloudy with Light Rain 68 20 67 19.4 96 96 NNW 6 9 30.01 1016 4 6 0.04 1.02
10:03 pm 22:03 Cloudy with Mist and Fog 68 20 67 19.4 96 96 NNW 5 7 30.01 1016 6 10 0.00 0.00
10:09 pm 22:09 Cloudy with Mist and Fog 68 20 67 19.4 96 96 NNW 5 7 30.01 1016 6 10 0.00 0.00
10:24 pm 22:24 Cloudy 68 20 67 19.4 96 96 NNW 3 6 30.01 1016 8 13 0.00 0.00
10:48 pm 22:48 Cloudy 70 21 66 19 88 88 NNW 3 6 30.00 1016 9 14 0.00 0.00
10:52 pm 22:52 Cloudy 69 20.6 67 19.4 93 93 N 5 7 30.00 1016 9 14 0.00 0.00
11:03 pm 23:03 Cloudy 69 20.6 67 19.4 93 93 N 6 9 30.00 1016 10 16 N/A
11:52 pm 23:52 Cloudy 69 20.6 67 19.4 93 93 N N/A 30.00 1016 9 14 N/A

Powered by AerisWeather